Regional Weather Roundup
Issued by NWS

Home | Current Version | Previous Version | Text Only | Print | Product List | Glossary Off
Versions: 1 2 3 4 5 6 7 8 9 10 11 12 13 14 15 16 17 18 19 20 21 22 23 24 25 26 27

000
ASUS45 KBOU 230707
RWRCO

WEATHER ROUNDUP FOR COLORADO
NATIONAL WEATHER SERVICE DENVER/BOULDER CO
100 AM MDT SAT JUL 23 2016

NOTE: "FAIR" INDICATES FEW OR NO CLOUDS BELOW 12000 FEET WITH NO
SIGNIFICANT WEATHER AND/OR OBSTRUCTIONS TO VISIBILITY.

COZ001>005-013-030-031-230800-
...NORTHWEST COLORADO...

CITY           SKY/WX    TMP DP  RH WIND       PRES   REMARKS
CRAIG          FAIR      59  46  62 CALM      30.27R
HAYDEN         FAIR      61  43  51 E6        30.29S
MEEKER         FAIR      63  51  65 NE6       30.29F
MOUNT WERNER   NOT AVBL
STEAMBOAT SPGS FAIR      59  47  64 CALM      30.32R
WALDEN         FAIR      54  41  62 E6        30.39F
$$

COZ006>008-011-230800-
...WEST CENTRAL VALLEYS...

CITY           SKY/WX    TMP DP  RH WIND       PRES   REMARKS
GRAND JUNCTION FAIR      74  54  49 SE13      30.19F
MONTROSE       FAIR      69  49  48 E8        30.28F
EAGLE          FAIR      59  52  77 E3        30.35R
RIFLE          FAIR      67  55  65 SE7       30.25F
DELTA          LGT RAIN  71  56  58 N7        30.25S
NUCLA          NOT AVBL
$$

COZ017>023-064>068-230800-
...SOUTHWEST COLORADO...

CITY           SKY/WX    TMP DP  RH WIND       PRES   REMARKS
DURANGO        FAIR      72  45  37 N6        30.28F
CORTEZ         FAIR      64  48  56 S3        30.26R
PAGOSA SPRINGS FAIR      65  45  48 NW3       30.38F
TELLURIDE      FAIR      58  49  73 SE6       30.53F
WOLF CREEK PAS FAIR      52  34  50 N7        30.75F
$$

COZ009-010-012-014-032>034-037-058>063-230800-
...CENTRAL COLORADO...

CITY           SKY/WX    TMP DP  RH WIND       PRES   REMARKS
ASPEN          FAIR      54  46  74 SW7       30.40F
BUENA VISTA    FAIR      58  46  64 NW6       30.40F
COPPER MTN     FAIR      54  41  62 CALM      30.73S
BERTHOUD PASS  FAIR      45  32  61 NW20G28   30.74F
COTTONWOOD PAS FAIR      61  39  44 W12G18    30.54F
GUNNISON       FAIR      54  46  76 CALM      30.46F
KREMMLING      FAIR      54  46  76 S3        30.40R
LEADVILLE      FAIR      47  41  80 E7        30.55F
MONARCH PASS   FAIR      46  41  81 W20G26    30.82F
SALIDA         FAIR      65  48  52 NW9       30.44S
SUNLIGHT       FAIR      54  43  66 CALM      30.66S
WILKERSON PASS FAIR      52  37  58 NW6       30.67S
$$

COZ069>075-230800-
...SAN LUIS VALLEY/SANGRE DE CRISTO MOUNTAINS...

CITY           SKY/WX    TMP DP  RH WIND       PRES   REMARKS
ALAMOSA        FAIR      56  46  69 S5        30.36S
LA VETA PASS   FAIR      59  43  55 S5        30.56S
SAGUACHE       FAIR      61  46  59 NW17      30.41S
$$

COZ035-036-038>040-230800-
...NORTHERN COLORADO FRONT RANGE...

CITY           SKY/WX    TMP DP  RH WIND       PRES   REMARKS
DENVER INTL AP FAIR      74  50  42 SW7       30.12S
DMNS CITY PARK   N/A     73  50  44 S3        30.12S
AURORA         PTCLDY    71  50  48 SW7       30.15S
FRONT RANGE AP NOT AVBL
ERIE MUNI ARPT FAIR      69  52  55 SE5       30.09S
BOULDER MUN AP FAIR      79  43  27 SW9       30.10S
CENTENNIAL     FAIR      68  48  48 S8        30.17R
BROOMFIELD     FAIR      77  41  27 S3        30.14R
LONGMONT       FAIR      75  54  47 CALM      30.09F
$$

COZ041-046-047-076>085-087-088-230800-
...PIKES PEAK/PALMER DIVIDE AND SOUTHERN FOOTHILLS...

CITY           SKY/WX    TMP DP  RH WIND       PRES   REMARKS
COLO. SPRINGS  FAIR      72  48  42 N10       30.20S
A. F. ACADEMY  FAIR      65  48  53 NE5       30.22S
SCHRIEVER AFB  NOT AVBL
ELLICOTT       FAIR     N/A N/A N/A CALM      30.17F
FALCON         FAIR      67  44  43 NW10      30.26F
FORT CARSON    FAIR      69  50  50 NW3       30.15S
LIMON          FAIR      74  50  42 W3        30.11S
MONUMENT HILL  FAIR      63  46  55 SW9       30.28S
TRINIDAD       NOT AVBL
$$

COZ042>045-048>051-090-091-230800-
...NORTHEAST COLORADO...

CITY           SKY/WX    TMP DP  RH WIND       PRES   REMARKS
GREELEY ARPT   FAIR      70  63  78 E6        30.10S
AKRON          FAIR      68  62  81 E10       30.06F
BURLINGTON     FAIR      75  58  55 SW7       30.01F
WRAY           FAIR      70  66  88 E8        29.99F
STERLING       FAIR      72  64  78 N5        30.02R
HOLYOKE        FAIR      73  68  83 W8        29.99F
FORT MORGAN    FAIR      69  61  76 NE8       30.06S
$$

COZ086-089-092>099-230800-
...SOUTHEAST COLORADO...

CITY           SKY/WX    TMP DP  RH WIND       PRES   REMARKS
PUEBLO         FAIR      69  59  70 CALM      30.06F
LA JUNTA       FAIR      78  55  44 NW12      30.02S
LAMAR          FAIR      83  52  34 S10       29.95F
SPRINGFIELD      N/A     79  50  36 SW14G24   30.05F
$$




USA.gov is the U.S. government's official web portal to all federal, state and local government web resources and services.